Flag for Brazil Weather past 2 weeks in Santos, São Paulo, Brazil

Now
75 °F

Clear.


Feels Like: 77 °F
Forecast: 80 / 89 °F
Wind: 10 mph from Northwest

Location: Sao Paulo Airport

Current Time: Dec 21, 2014 at 2:12:03 AM

Latest Report: Dec 21, 2014 at 2:00 AM


Visibility: 10 mi

Pressure: 29.95 "Hg

Humidity: 69%

Dew point: 64 °F

Location of SantosLocation

Historic Weather in Santos — Graph

°F

Santos temperature yesterday

Maximum temperature yesterday: 86 °F (at 2:00 PM)
Minimum temperature yesterday: 70 °F (at 12:00 AM)
Average temperature yesterday: 77 °F

Past Weeks' High & Low Weather Summary

 TemperatureHumidityPressure
High88 °F (Dec 8, 4:00 PM)100% (Dec 11, 6:00 PM)30.18 "Hg (Dec 11, 6:00 PM)
Low32 °F (Dec 12, 7:00 PM)31% (Dec 18, 12:00 PM)29.83 "Hg (Dec 13, 5:00 PM)
Average71 °F71%30.02 "Hg
* Reported Dec 6 1:00 AM — Dec 21 1:00 AM, Santos, Weather by CustomWeather, © 2014

Note: Actual official high and low records may vary slightly from our data, if they occured in-between our weather recording intervals... More about our weather records

Advertising

Santos weather history for previous 24 hours

 ConditionsComfort  
Time TempWeatherWind HumidityBarometerVisibility
1:00 AM
Dec 21
77 °FClear.10 mph65%29.95 "Hg10 mi
12:00 AM79 °FClear.14 mph61%29.95 "Hg10 mi
11:00 PM
Dec 20
79 °FClear.12 mph61%29.95 "Hg10 mi
10:00 PM81 °FPassing clouds.9 mph58%29.92 "HgN/A
9:00 PM81 °FPassing clouds.9 mph58%29.89 "HgN/A
8:00 PM82 °FPassing clouds.9 mph51%29.89 "HgN/A
7:00 PM84 °FPassing clouds.13 mph48%29.89 "HgN/A
6:00 PM86 °FScattered clouds.13 mph46%29.89 "HgN/A
5:00 PM86 °FScattered clouds.12 mph46%29.89 "HgN/A
4:00 PM86 °FScattered clouds.14 mph46%29.89 "HgN/A
3:00 PM86 °FScattered clouds.16 mph46%29.92 "HgN/A
2:00 PM86 °FSunny.16 mph46%29.95 "Hg10 mi
1:00 PM84 °FSunny.16 mph51%29.95 "Hg10 mi
12:00 PM79 °FSunny.15 mph61%29.98 "Hg10 mi
11:00 AM77 °FSunny.10 mph65%29.98 "Hg10 mi
10:00 AM72 °FSunny.10 mph73%29.98 "Hg10 mi
9:00 AM72 °FSunny.14 mph73%29.95 "Hg10 mi
8:00 AM70 °FPartly sunny.9 mph83%29.95 "HgN/A
7:00 AM70 °FPartly sunny.10 mph83%29.92 "HgN/A
6:00 AM70 °FLight rain. Passing clouds.9 mph83%29.92 "HgN/A
5:00 AM70 °FClear.12 mph83%29.92 "Hg10 mi
4:00 AM70 °FClear.6 mph88%29.89 "Hg10 mi
3:00 AM70 °FClear.9 mph88%29.89 "Hg4 mi
2:00 AM70 °FPassing clouds.5 mph88%29.95 "Hg6 mi
Weather by CustomWeather, © 2014

See weather overviewHow to use our weather pages